Powrót do katalogu

CZ-4 DEB

AktywnySSO
NORAD 27678·DEBRIS·🇨🇳 China

Wystrzelony Oct 14, 1999 z Taiyuan Satellite Launch Center

Loading…

Następne Przeloty (najbliższe 24 godziny)

TLE

ŚwieżeSource: Space-Track

Epoka: Sep 14, 2026, 08:56 UTC

1 27678U 99057MS  26257.37232936  .00000106  00000-0  51221-4 0  9999
2 27678  98.8288 299.4395 0107712 118.3383 307.9219 14.33941543269893

Śledź CZ-4 DEB w czasie rzeczywistym z AllMySat

Download on the App Store